Temperature
9 8 8 8 8 8 8 8 8 8 7 7 7 7 7 7 7 7 7 7 7 7 7 7 6 6 6 6 6 6 6 6 6 6 6 6 6 6 6 6 6 6 6
8 8 8 8 8 8 8 8 7 7 7 7 7 7 7 7 6 6 6 6 6 6 6 6 6 6 6 5 5 6 5 5 5 5 6 6 6 6 6 6 6 6 6
8 8 8 8 8 8 7 7 7 7 7 7 7 6 6 6 6 6 6 6 6 6 6 6 6 5 5 5 5 5 5 5 5 5 5 5 5 5 5 5 5 5 5
7 7 7 7 7 7 7 7 7 7 7 7 6 6 6 6 6 6 6 6 6 6 5 5 5 5 5 5 5 5 5 5 5 4 4 5 5 5 5 5 5 5 5
7 7 7 7 7 7 7 6 6 6 6 6 6 6 6 6 6 5 5 5 5 5 5 5 5 5 5 5 5 5 4 4 4 4 4 4 4 4 4 4 4 4 4
6 6 6 6 6 6 6 6 6 6 6 6 6 6 6 5 5 5 5 5 5 5 5 5 5 5 5 5 4 4 4 4 4 4 4 4 4 4 4 4 3 3 3
6 6 6 6 6 6 6 5 5 5 5 5 5 5 5 5 5 5 4 4 4 4 4 4 4 4 4 4 4 4 4 4 3 3 3 4 4 3 3 3 3 2 2
5 5 5 5 5 5 5 5 5 5 5 5 5 5 4 4 4 4 4 4 4 4 4 4 4 4 4 4 4 4 4 3 3 3 3 3 3 3 3 2 2 2 2
5 5 4 4 4 4 4 4 4 4 4 4 4 4 4 4 3 3 3 3 3 4 4 4 3 3 3 3 3 3 3 3 3 3 3 3 3 2 2 2 1 1 1
4 4 4 4 4 4 4 4 4 3 3 3 3 3 3 3 3 3 3 3 3 3 3 3 3 3 3 3 3 3 3 3 3 2 2 2 2 2 2 1 1 0 0
3 3 3 3 3 3 3 3 3 3 3 3 3 3 3 3 3 3 2 2 2 2 3 3 3 3 2 2 2 2 2 2 2 2 2 2 2 1 1 1 0 0 -0
3 3 3 3 3 3 2 2 2 2 2 2 2 2 2 2 2 2 2 2 2 2 2 2 2 2 2 2 2 2 2 1 1 1 1 1 1 1 1 0 0 -0 -0
3 3 3 3 2 2 2 2 2 2 1 1 1 2 2 2 2 2 2 2 2 1 2 2 2 1 1 1 1 1 1 1 1 1 1 1 0 0 -0 -0 -0 -1 -1
2 2 2 2 2 2 1 1 1 1 1 1 1 1 1 1 1 1 1 1 1 1 1 1 1 1 1 1 1 1 1 0 0 0 0 -0 -0 -0 -1 -1 -1 -1 -1
2 2 2 2 2 1 1 1 1 1 0 0 0 0 1 1 1 1 1 1 1 1 0 0 0 0 0 0 0 0 0 -0 -0 -0 -1 -1 -1 -1 -1 -1 -2 -2 -2
1 1 1 1 1 1 0 0 0 0 0 0 0 0 0 0 0 0 0 0 0 0 -0 -0 -0 -0 -0 -0 -0 -0 -1 -1 -1 -1 -1 -2 -2 -2 -2 -2 -2 -2 -2
0 0 0 0 -0 -0 -0 -0 -0 0 0 -0 -0 -0 -0 -0 -0 -0 -0 -0 -0 -0 -0 -0 -1 -1 -1 -1 -1 -1 -1 -1 -1 -1 -2 -2 -2 -2 -2 -2 -2 -2 -2
-0 -0 -0 -1 -1 -1 -1 -1 -1 -1 -1 -0 -0 -0 -1 -1 -0 -0 -1 -1 -1 -1 -1 -1 -1 -1 -1 -1 -1 -1 -1 -1 -2 -2 -2 -2 -2 -2 -2 -2 -3 -3 -3
-1 -1 -1 -1 -1 -1 -1 -1 -1 -1 -1 -1 -1 -1 -1 -1 -1 -1 -1 -1 -1 -1 -1 -1 -1 -1 -1 -1 -1 -2 -2 -2 -2 -2 -2 -2 -2 -2 -2 -3 -3 -3 -3
-1 -1 -2 -2 -2 -2 -2 -2 -2 -2 -2 -2 -2 -2 -2 -2 -2 -1 -1 -1 -1 -1 -1 -1 -1 -1 -2 -2 -2 -2 -2 -2 -2 -2 -2 -2 -3 -3 -3 -3 -3 -3 -3
-2 -2 -2 -2 -2 -2 -2 -2 -2 -2 -2 -2 -2 -2 -2 -2 -2 -2 -2 -1 -1 -1 -1 -1 -2 -2 -2 -2 -2 -2 -2 -2 -2 -2 -2 -3 -3 -3 -3 -3 -4 -4 -4
-2 -2 -2 -2 -2 -2 -3 -3 -3 -3 -3 -3 -2 -2 -2 -2 -2 -2 -2 -2 -2 -2 -2 -2 -2 -2 -2 -2 -2 -2 -2 -2 -3 -3 -3 -3 -3 -3 -4 -4 -4 -4 -4
-3 -3 -3 -3 -3 -3 -3 -3 -3 -3 -3 -3 -3 -3 -3 -3 -3 -2 -2 -2 -2 -2 -2 -2 -2 -2 -2 -3 -3 -3 -3 -3 -3 -3 -3 -3 -3 -4 -4 -4 -4 -4 -5
-3 -3 -3 -3 -3 -3 -3 -3 -3 -3 -3 -3 -3 -3 -3 -3 -3 -3 -3 -3 -3 -3 -3 -2 -2 -2 -2 -3 -3 -3 -3 -3 -3 -3 -3 -3 -4 -4 -4 -4 -5 -5 -5
-4 -4 -4 -4 -4 -4 -4 -4 -3 -3 -3 -3 -3 -3 -3 -3 -3 -3 -3 -3 -3 -3 -3 -3 -3 -3 -3 -3 -3 -3 -3 -3 -3 -3 -3 -4 -4 -4 -4 -5 -5 -5 -5
-4 -4 -4 -4 -4 -4 -4 -4 -4 -4 -4 -3 -3 -3 -3 -3 -3 -3 -3 -3 -3 -3 -3 -3 -3 -3 -3 -3 -3 -3 -3 -3 -3 -4 -4 -4 -4 -4 -5 -5 -5 -5 -6
Wind_Speed
3 3 3 4 4 4 4 5 5 4 4 4 5 4 4 4 4 4 4 4 4 4 4 4 5 4 3 3 3 3 4 4 5 3 2 2 2 2 3 4 4 5 5
3 3 3 3 3 4 5 5 4 5 5 5 5 5 5 5 5 5 5 5 5 5 5 5 5 4 4 4 4 4 4 4 4 5 3 2 2 2 2 3 3 4 5
3 3 3 3 4 5 5 5 4 5 5 5 5 6 6 6 5 5 6 6 6 6 6 6 6 5 5 4 4 4 4 3 3 4 3 2 2 1 2 2 2 2 4
3 3 4 5 5 5 5 5 5 5 5 5 6 6 6 6 6 6 6 6 6 6 6 6 6 6 6 5 5 5 4 3 3 3 3 2 2 1 1 2 3 2 3
3 4 5 5 5 4 4 5 5 5 6 6 6 6 6 6 6 6 6 6 6 6 6 6 6 8 8 7 5 5 5 4 3 3 3 2 2 2 2 2 2 3 3
4 5 5 4 4 4 5 5 4 5 5 5 6 6 6 6 9 11 8 6 6 7 7 6 6 7 8 10 10 9 7 6 6 5 4 4 4 3 3 2 2 2 3
4 5 5 4 5 5 4 4 5 5 5 5 6 6 7 8 11 12 11 6 6 7 7 6 5 6 7 5 7 8 8 10 9 6 6 6 5 4 3 3 3 3 4
5 5 5 5 5 5 4 5 5 5 5 5 6 6 6 8 11 12 11 7 6 7 7 7 7 6 6 6 5 5 4 5 6 5 5 5 5 4 4 4 3 2 2
5 6 6 5 5 5 5 6 5 4 5 5 5 6 6 8 11 11 10 5 5 7 7 7 7 7 9 9 6 5 5 4 4 5 5 5 5 4 3 2 1 2 3
7 7 6 5 6 6 7 6 5 5 6 6 6 6 7 8 10 11 10 4 6 6 5 6 9 9 10 10 7 6 7 5 3 2 2 2 2 2 3 3 3 3 2
7 6 6 6 6 6 6 5 5 5 5 6 6 6 7 8 10 12 11 6 6 6 5 5 6 10 11 11 9 7 8 5 4 3 2 1 1 1 1 1 2 3 4
6 6 6 6 6 5 5 5 5 5 6 6 6 7 6 7 9 10 12 11 9 7 6 5 6 10 11 10 8 8 8 6 3 3 3 2 2 2 2 2 2 3 3
6 6 6 6 6 5 5 6 5 5 5 6 6 7 6 5 7 12 12 12 11 7 6 8 8 9 8 6 7 8 6 4 4 4 4 3 3 2 2 1 1 1 2
7 7 6 6 6 5 5 5 5 6 6 6 6 7 6 6 5 5 5 6 8 7 6 7 9 8 5 5 5 4 4 4 5 4 3 3 2 2 2 2 2 1 1
7 7 6 6 6 6 6 6 7 7 8 8 7 7 7 8 9 9 6 5 5 5 4 3 3 3 4 3 3 3 3 3 4 3 3 3 3 3 2 2 2 2 2
7 6 6 5 5 6 6 7 9 11 13 15 14 12 9 11 13 12 11 10 10 9 5 4 5 5 5 5 5 4 4 4 4 4 4 4 4 4 3 2 2 2 3
8 7 6 6 6 6 6 6 8 8 11 13 14 15 14 13 13 13 12 11 11 9 6 5 6 6 6 6 5 5 5 5 4 4 5 5 4 4 3 3 3 3 3
8 8 8 6 6 6 7 7 7 7 8 7 8 12 13 13 13 12 11 8 6 7 5 6 6 6 6 6 6 5 5 4 4 5 5 5 5 4 4 4 4 4 3
7 6 6 6 6 7 7 7 7 8 8 7 6 7 10 10 11 11 9 6 6 6 6 6 6 6 6 6 6 5 5 5 5 5 5 5 5 5 4 4 4 5 4
7 10 9 7 7 7 7 7 7 7 7 7 7 6 4 4 5 5 6 5 6 6 6 6 6 6 6 6 6 5 5 5 6 5 5 5 5 5 5 5 5 4 4
7 8 10 8 7 7 7 7 7 7 7 8 7 8 9 6 7 7 6 6 6 6 6 6 5 6 5 5 5 6 7 6 6 6 5 5 5 5 4 5 5 4 3
7 7 7 7 7 7 7 7 7 7 8 8 7 7 11 7 6 6 6 6 6 5 5 5 6 6 6 6 6 6 6 6 6 6 6 5 5 5 5 4 4 4 4
7 7 7 7 7 9 9 7 7 7 8 7 7 7 6 6 6 6 6 6 5 5 5 5 5 5 5 5 6 7 7 7 7 7 7 6 6 5 5 5 5 4 4
7 7 8 7 7 7 7 8 7 8 7 7 7 7 6 6 6 7 6 5 5 5 5 5 5 7 7 6 6 6 7 7 7 8 9 7 6 6 5 5 5 5 4
7 7 7 7 7 7 7 7 7 7 7 7 7 6 6 6 6 6 5 4 5 5 5 5 5 6 8 9 8 7 9 10 9 8 8 7 7 7 6 6 5 4 4
7 7 7 7 7 7 7 7 7 7 7 7 6 6 6 6 6 5 5 4 4 4 4 4 5 7 8 8 9 10 11 11 12 11 9 7 7 6 6 5 5 5 4
Wind_Direction
270 257 254 252 243 237 237 243 244 247 245 245 248 249 249 249 246 242 245 245 248 256 251 240 243 239 238 237 232 232 234 230 252 266 250 254 239 261 294 295 287 279 282
274 267 262 260 252 249 252 252 246 247 247 245 246 248 249 247 242 238 247 245 242 249 251 246 245 240 240 236 230 231 231 223 233 256 258 245 247 258 271 282 293 289 284
280 275 275 271 260 257 259 260 254 250 252 250 243 245 248 248 245 240 239 243 241 241 241 240 243 236 241 239 235 235 233 231 226 242 257 247 257 268 288 286 280 285 294
286 276 273 267 259 258 260 259 255 249 248 248 246 245 245 245 243 240 237 241 244 243 239 238 238 232 235 235 237 237 231 230 233 240 250 253 253 254 248 273 292 294 300
285 277 271 270 265 261 261 259 255 250 250 247 248 250 247 243 242 238 236 238 241 244 242 238 237 236 234 232 233 230 220 225 228 236 247 256 252 246 246 243 269 302 296
284 279 281 281 275 270 268 268 264 260 257 253 250 249 249 250 253 250 243 235 237 239 241 240 239 240 241 242 242 236 223 219 222 226 238 245 250 243 238 240 259 297 290
280 282 284 280 277 274 273 272 268 264 261 259 258 254 256 258 260 259 253 241 235 237 236 238 242 237 236 236 244 244 240 236 227 215 227 236 237 228 216 233 238 248 257
279 279 278 275 274 275 272 267 265 260 257 257 258 255 256 261 263 261 259 249 241 239 233 231 234 238 230 225 225 230 236 244 239 226 223 231 230 220 210 222 233 255 276
281 278 275 271 271 271 269 267 264 261 262 260 257 253 253 262 264 262 258 244 246 246 237 231 229 233 238 231 217 222 234 249 250 232 227 229 230 228 207 177 196 260 283
278 275 273 267 262 262 261 263 262 257 259 261 261 253 251 257 265 264 256 239 246 247 242 235 236 235 236 228 212 211 228 237 212 211 228 243 244 233 224 209 203 228 257
276 277 276 268 262 259 260 260 261 262 263 262 263 263 256 257 265 264 258 241 238 240 240 238 235 239 237 231 220 215 225 214 191 189 200 216 226 230 225 219 213 213 229
275 275 274 270 267 265 257 262 259 258 264 266 266 272 263 258 260 263 258 252 241 234 240 238 234 236 236 230 222 217 217 207 178 182 202 221 229 235 230 231 233 233 232
274 270 269 270 265 257 250 257 261 253 255 262 260 265 270 262 258 262 259 253 247 241 239 237 236 235 231 228 221 213 207 193 184 198 215 223 219 215 203 218 242 242 256
269 271 270 269 271 264 254 248 249 250 252 255 257 259 264 263 259 256 248 251 249 243 238 235 229 223 214 211 211 210 197 193 197 207 211 209 191 188 201 207 216 220 262
266 269 270 265 264 266 259 249 247 244 242 248 252 249 254 263 259 253 251 244 232 228 219 218 207 201 205 203 198 197 192 192 203 194 194 198 200 203 212 199 206 211 233
265 267 264 264 264 262 266 273 255 251 259 257 254 253 253 255 263 263 256 252 244 225 214 216 219 216 215 212 211 211 205 204 200 197 199 203 205 207 213 208 209 218 240
253 260 262 259 258 259 259 265 278 277 260 257 258 258 257 260 260 259 256 251 242 225 222 219 221 219 218 214 211 212 213 205 193 197 205 205 202 204 206 212 217 224 239
253 256 254 253 252 253 254 256 260 269 279 276 263 260 260 258 257 254 251 244 240 229 223 219 221 219 215 213 211 210 205 194 193 200 205 205 201 201 206 212 216 222 232
257 255 252 251 250 251 252 254 257 258 263 270 275 269 259 258 257 250 240 231 230 232 227 222 218 215 214 210 206 202 199 199 197 198 203 205 203 201 207 210 215 224 231
258 256 254 253 252 253 251 252 255 258 261 261 261 261 255 250 252 245 231 226 229 229 223 220 216 213 210 206 200 195 196 199 196 200 202 202 202 201 205 207 210 216 226
258 259 256 255 252 252 251 252 254 255 256 257 257 255 251 245 245 242 238 233 230 226 221 216 214 210 207 201 197 196 197 201 200 200 199 198 195 199 204 205 207 210 216
254 254 251 251 252 252 255 253 253 254 255 257 262 260 256 249 243 241 239 238 232 224 215 211 213 209 203 200 196 196 201 203 201 198 196 194 194 197 198 202 202 202 205
254 253 254 254 253 259 263 257 253 252 253 254 256 256 250 242 240 239 239 235 224 217 209 204 206 206 201 197 195 196 201 203 199 192 190 191 193 194 194 198 199 200 206
250 250 252 255 254 254 256 258 255 253 253 253 252 251 247 242 241 241 237 229 219 214 207 204 206 205 200 199 199 200 202 199 191 190 186 186 189 190 190 192 195 200 203
249 250 251 252 253 254 256 258 256 253 251 251 252 251 247 242 240 239 233 224 216 214 209 206 205 203 201 200 199 200 198 195 190 182 179 180 182 183 184 186 188 187 188
252 252 252 252 252 252 253 255 254 252 251 249 248 246 243 239 236 233 227 219 215 213 211 209 204 201 200 202 200 197 194 193 189 184 177 174 175 177 176 179 176 176 175
Height
1474 1474 1473 1473 1473 1473 1473 1473 1472 1472 1472 1471 1471 1470 1470 1470 1470 1469 1469 1468 1468 1468 1468 1468 1468 1468 1468 1468 1469 1469 1469 1469 1468 1467 1468 1468 1468 1468 1467 1467 1466 1466 1465
1470 1470 1470 1470 1470 1469 1469 1469 1468 1468 1468 1467 1466 1466 1465 1465 1465 1464 1464 1464 1463 1463 1463 1463 1463 1464 1464 1464 1464 1464 1464 1464 1464 1462 1463 1463 1463 1463 1462 1462 1461 1460 1460
1467 1466 1466 1466 1465 1465 1465 1464 1464 1463 1463 1463 1462 1461 1461 1460 1460 1460 1459 1459 1459 1458 1458 1458 1458 1458 1458 1459 1459 1459 1459 1459 1459 1458 1458 1458 1458 1458 1457 1457 1456 1455 1455
1463 1462 1462 1462 1461 1461 1460 1460 1459 1459 1458 1457 1457 1456 1455 1455 1455 1454 1454 1454 1453 1453 1453 1453 1453 1453 1453 1454 1454 1454 1454 1454 1454 1453 1453 1453 1453 1452 1452 1451 1451 1450 1449
1459 1458 1458 1458 1457 1456 1456 1455 1454 1454 1453 1452 1451 1451 1450 1450 1449 1449 1449 1448 1448 1448 1448 1448 1448 1448 1448 1449 1449 1449 1449 1449 1449 1448 1448 1448 1448 1447 1447 1446 1445 1444 1443
1455 1454 1454 1453 1452 1451 1451 1450 1449 1448 1448 1447 1446 1445 1445 1444 1444 1443 1443 1442 1442 1442 1442 1442 1443 1443 1443 1443 1444 1444 1444 1444 1443 1443 1443 1443 1443 1443 1442 1441 1440 1439 1438
1451 1450 1449 1448 1447 1446 1445 1445 1444 1443 1442 1441 1440 1440 1439 1438 1438 1437 1437 1437 1436 1436 1436 1437 1437 1437 1438 1438 1438 1438 1438 1439 1439 1439 1438 1438 1438 1438 1437 1436 1436 1435 1433
1445 1444 1444 1443 1442 1441 1440 1439 1438 1438 1437 1436 1435 1434 1433 1432 1432 1432 1431 1430 1430 1430 1430 1430 1431 1431 1432 1432 1432 1432 1433 1433 1433 1433 1433 1433 1433 1433 1432 1432 1431 1430 1429
1441 1440 1439 1438 1436 1435 1434 1433 1432 1432 1431 1430 1429 1428 1427 1426 1426 1426 1425 1424 1423 1423 1424 1424 1424 1425 1426 1426 1426 1426 1427 1427 1428 1428 1428 1428 1428 1428 1427 1427 1426 1425 1424
1436 1435 1434 1433 1431 1430 1429 1428 1427 1426 1425 1424 1423 1422 1421 1420 1420 1420 1419 1418 1417 1417 1417 1418 1418 1419 1420 1420 1420 1421 1421 1421 1422 1422 1423 1423 1423 1422 1422 1422 1422 1421 1420
1431 1430 1429 1428 1426 1425 1424 1423 1421 1420 1419 1417 1416 1416 1415 1414 1414 1413 1413 1412 1411 1411 1411 1411 1412 1413 1414 1414 1415 1415 1416 1416 1416 1417 1417 1417 1418 1417 1417 1418 1417 1417 1416
1426 1425 1423 1422 1421 1420 1418 1417 1415 1414 1412 1411 1410 1409 1408 1408 1407 1406 1406 1406 1405 1405 1405 1405 1406 1407 1408 1409 1409 1410 1410 1411 1411 1411 1412 1412 1412 1412 1413 1413 1413 1412 1412
1420 1419 1418 1416 1415 1414 1412 1411 1409 1408 1406 1404 1403 1402 1401 1401 1401 1400 1400 1399 1399 1399 1398 1399 1400 1401 1402 1403 1404 1404 1405 1405 1405 1406 1406 1407 1408 1408 1408 1408 1408 1408 1407
1414 1413 1411 1410 1408 1407 1406 1404 1403 1401 1400 1398 1397 1396 1395 1394 1394 1394 1393 1393 1392 1392 1392 1393 1394 1395 1396 1397 1397 1398 1399 1400 1400 1401 1401 1402 1402 1403 1403 1403 1403 1403 1402
1407 1406 1405 1403 1402 1400 1399 1398 1396 1395 1394 1392 1391 1390 1389 1387 1388 1388 1387 1386 1386 1386 1386 1387 1388 1389 1389 1390 1391 1392 1393 1394 1395 1396 1396 1397 1397 1398 1398 1399 1399 1399 1398
1400 1399 1398 1396 1395 1393 1392 1390 1389 1388 1387 1386 1385 1384 1382 1382 1382 1381 1381 1381 1380 1381 1381 1381 1381 1382 1383 1384 1385 1386 1387 1389 1390 1391 1392 1392 1393 1393 1393 1394 1394 1394 1394
1393 1392 1391 1389 1388 1386 1385 1383 1381 1380 1379 1378 1377 1376 1376 1375 1375 1375 1375 1375 1375 1375 1375 1375 1375 1376 1377 1378 1380 1381 1382 1383 1385 1386 1387 1387 1388 1388 1389 1389 1390 1390 1390
1386 1385 1383 1382 1381 1379 1378 1376 1375 1373 1371 1369 1369 1369 1368 1368 1368 1368 1368 1368 1368 1369 1369 1369 1370 1371 1372 1373 1374 1375 1376 1378 1379 1380 1381 1382 1383 1384 1384 1385 1386 1386 1386
1379 1377 1376 1375 1373 1372 1371 1369 1368 1366 1364 1362 1362 1361 1362 1361 1361 1361 1361 1361 1361 1362 1363 1363 1364 1365 1366 1367 1368 1370 1371 1372 1374 1375 1376 1377 1378 1379 1380 1381 1381 1382 1382
1372 1370 1369 1367 1366 1364 1363 1362 1360 1359 1357 1356 1355 1355 1355 1355 1354 1354 1355 1355 1355 1356 1357 1357 1358 1359 1360 1361 1362 1364 1366 1367 1368 1370 1371 1372 1374 1375 1376 1376 1377 1377 1378
1364 1363 1362 1360 1359 1357 1356 1355 1353 1352 1351 1349 1348 1349 1349 1348 1348 1348 1348 1349 1349 1350 1351 1351 1352 1353 1354 1356 1357 1358 1360 1361 1363 1364 1366 1368 1369 1370 1371 1372 1373 1373 1373
1357 1355 1354 1352 1351 1350 1349 1347 1346 1345 1344 1343 1342 1342 1342 1342 1342 1342 1342 1343 1343 1344 1345 1346 1346 1347 1349 1350 1352 1353 1355 1356 1358 1359 1361 1363 1364 1365 1366 1367 1368 1369 1369
1349 1348 1346 1345 1344 1343 1342 1340 1339 1338 1337 1336 1336 1335 1335 1335 1335 1335 1336 1336 1337 1338 1339 1340 1341 1342 1343 1345 1347 1348 1350 1351 1353 1355 1356 1358 1359 1361 1362 1363 1364 1365 1365
1341 1340 1339 1338 1337 1336 1334 1333 1333 1332 1331 1330 1329 1329 1329 1329 1329 1329 1330 1330 1331 1332 1334 1335 1336 1337 1338 1340 1341 1343 1345 1347 1348 1350 1351 1353 1354 1356 1357 1359 1360 1361 1362
1334 1333 1332 1331 1330 1329 1328 1327 1326 1325 1325 1324 1323 1323 1323 1323 1323 1323 1324 1325 1326 1327 1328 1329 1331 1332 1333 1335 1336 1338 1340 1342 1343 1345 1347 1348 1350 1352 1353 1355 1356 1357 1358
1327 1326 1325 1324 1323 1322 1321 1320 1320 1319 1318 1318 1317 1317 1317 1317 1317 1318 1319 1320 1321 1322 1323 1324 1326 1327 1329 1330 1332 1334 1335 1337 1339 1341 1342 1344 1346 1348 1349 1351 1352 1354 1355